Regional Weather Roundup
Issued by NWS

Home | Current Version | Previous Version | Graphics & Text | Print | Product List | Glossary On
Versions: 1 2 3 4 5 6 7 8 9 10 11 12 13 14 15 16 17 18 19 20 21 22 23 24 25 26 27 28 29 30 31 32 33 34 35 36 37 38 39 40 41 42 43 44 45 46 47 48 49 50
000
ASUS45 KABQ 030201
RWRNM
WEATHER ROUNDUP FOR NEW MEXICO
NATIONAL WEATHER SERVICE ALBUQUERQUE NM
700 PM MST MON MAR 02 2015

NOTE: "FAIR" MEANS FEW OR NO CLOUDS BELOW 12,000 FEET AGL WITH NO
       SIGNIFICANT WEATHER OR OBSTRUCTIONS TO VISION.

      THIS PRODUCT IS RELEASED AS TWO VERSIONS.  ONE VERSION NEAR
      THE TOP OF THE HOUR CONTAINING PRELIMINARY DATA FROM ALBUQUERQUE
      AND OTHER STATIONS.  A FINAL VERSION WITH ADDITIONAL DATA IS
      ISSUED ABOUT 10 MINUTES AFTER THE HOUR.

NMZ501-503-504-510>518-030300-
NORTHWEST PLATEAU/NORTHCENTRAL MOUNTAINS

CITY           SKY/WX    TMP DP  RH WIND       PRES   REMARKS
FARMINGTON     LGT RAIN  37  34  89 NW14G21   29.88R WCI  28
SANTA FE       CLOUDY    50  34  54 S16G29    29.85R
TAOS           CLOUDY    43  30  61 S12G18    29.81F
ANGEL FIRE     FAIR      42  29  60 SW24G36   29.84F

$$
NMZ402-403-502-505>509-030300-
WESTCENTRAL MOUNTAINS/SOUTHWEST MOUNTAINS

CITY           SKY/WX    TMP DP  RH WIND       PRES   REMARKS
GALLUP         LGT SNOW  34  31  88 W15       29.93R FOG     WCI  24
SILVER CITY    CLOUDY    54  39  58 SW25G44   30.00R

$$
NMZ407-409-411-412-030300-
SOUTHERN DESERTS

CITY           SKY/WX    TMP DP  RH WIND       PRES   REMARKS
DEMING         CLOUDY    57  47  69 W12       29.97R
HOLLOMAN AFB   MOCLDY    55  46  71 SW17      29.95S
ALAMOGORDO     MOCLDY    57  46  67 SE21      29.96S
T OR C         CLOUDY    58  40  51 SW25G35   29.90S

$$
NMZ519>523-030300-
CENTRAL VALLEYS/CENTRAL HIGHLANDS

CITY           SKY/WX    TMP DP  RH WIND       PRES   REMARKS
ALBUQUERQUE    CLOUDY    54  41  61 S29G37    29.86R
DOUBLE EAGLE   MOCLDY    48  37  66 S15       29.86R
MORIARTY ARPT  FAIR      49  38  66 S25G32    29.90S
CLINES CORNERS CLOUDY    45  37  73 SW21      29.89F
BELEN          FAIR      53  41  65 S22       29.88R
SOCORRO        NOT AVBL

$$
NMZ524>526-539-540-030300-
SOUTHCENTRAL MOUNTAINS

CITY           SKY/WX    TMP DP  RH WIND       PRES   REMARKS
RUIDOSO        NOT AVBL

$$
NMZ527>531-030300-
NORTHEAST HIGHLANDS/NORTHEAST PLAINS

CITY           SKY/WX    TMP DP  RH WIND       PRES   REMARKS
LAS VEGAS      FOG       29  29 100 S10       29.89S VSB 1/4 WCI  20
RATON          CLOUDY    31  30  96 S8        29.82F WCI  23
CLAYTON        CLOUDY    32  30  92 SW17G29   29.81F WCI  21

$$
NMZ532>537-030300-
EASTCENTRAL PLAINS

CITY           SKY/WX    TMP DP  RH WIND       PRES   REMARKS
TUCUMCARI      CLOUDY    36  34  92 S5        29.93F WCI  32
CANNON AFB     CLOUDY    35  34  97 S9        29.97F WCI  28
CLOVIS AIRPORT CLOUDY    34  32  93 S13       29.98F WCI  25

$$
NMZ028-029-538-030300-
SOUTHEAST PLAINS

CITY           SKY/WX    TMP DP  RH WIND       PRES   REMARKS
ROSWELL        CLOUDY    39  33  79 S16       29.99F WCI  30
ARTESIA        CLOUDY    37  37 100 SE22G28   30.01F WCI  27
CARLSBAD       CLOUDY    40  34  79 S13       30.04F WCI  32
HOBBS          CLOUDY    36  36 100 S9        30.05S WCI  29


$$



USA.gov is the U.S. government's official web portal to all federal, state and local government web resources and services.